Geosat 1

operational
NORAD ID: 15595 Int'l Des: 1985-021 Owner: NAVAIR Country: US
LEOCIRCULARRETROGRADE

About Geosat 1

Description loading...

Live Position

Loading 3D Globe...

Upcoming Passes

Altitude History

Altitude vs Time

uPlot chart will show altitude changes over time

Two-Line Element Set

1 15595U 85021A 26062.34517085 .00000344 00000-0 15236-3 0 9991
2 15595 108.0477 221.1438 0002483 261.6152 98.4709 14.39906842147538
Epoch: Mar 3, 2026 • Age: 35 hours

Current Status

Altitude 771.3 km
Velocity 7.47 km/s
Sub-Earth Point -36.43°S, 86.68°W
Launch Date Mar 13, 1985
Age 40.9 years
Type other

Technical Details

Classification Payload
Mass 636.00 kg
Dry Mass 598.00 kg
Total Mass 636.00 kg
Length 1.20 m
Diameter 1.10 m
Span 7.00 m
Shape Oct Cyl + 8 Pan + Ant
Manufacturer APL
Bus Type Geosat
Phase Status In Orbit
Owner/State NAVAIR/US

Large Constellations

Loading constellations...